Dewpoint
52 50 49 48 47 48 46 46 43 38 37 38 37 36 36 38 39 33 32 34 33 31 32 33 33 35 37 37 38 38 38 38 38 38 39 39 39 39
51 50 49 48 47 47 46 45 45 42 39 37 35 36 34 36 38 31 32 31 29 30 31 32 33 35 34 35 36 36 37 37 37 38 38 38 38 38
51 49 48 47 47 46 46 45 43 43 37 36 35 35 33 32 31 30 30 27 27 28 29 32 34 34 33 34 35 35 35 35 36 36 37 37 37 37
49 48 46 46 45 45 45 43 43 41 37 33 33 33 32 31 30 28 26 21 24 25 27 31 34 34 32 33 33 33 33 33 34 34 34 35 35 36
48 47 45 45 43 43 43 42 41 41 39 35 34 33 31 29 28 27 27 26 25 26 25 29 32 30 31 32 32 31 30 30 32 33 33 33 34 34
46 46 44 44 42 41 40 39 40 39 37 34 33 32 30 29 30 28 27 27 26 23 24 26 27 26 27 28 28 27 27 29 32 32 32 32 32 33
40 41 41 42 42 41 40 39 38 37 35 33 32 32 31 30 29 29 26 25 25 25 23 23 23 23 24 26 25 25 28 30 31 31 32 32 31 31
38 39 40 41 42 42 40 40 38 36 34 32 30 31 30 26 27 27 25 24 23 23 21 21 23 21 22 23 26 27 28 29 30 31 31 30 30 30
37 37 37 38 38 36 37 37 36 35 32 30 30 26 26 26 27 25 23 23 22 23 22 21 22 21 22 21 26 27 27 28 30 29 29 29 29 30
36 36 35 34 33 31 31 30 30 30 30 28 28 27 26 25 26 25 25 23 23 23 23 22 22 21 22 22 27 25 27 28 28 28 29 29 29 29
35 34 34 34 36 36 32 31 31 30 31 32 31 31 30 28 26 26 24 25 24 20 22 22 22 21 21 21 21 25 27 28 27 28 28 28 28 29
35 36 38 36 38 35 29 29 29 29 29 27 26 25 26 26 27 25 26 23 24 22 23 21 23 22 19 21 21 22 22 25 27 28 27 27 28 24
33 34 36 37 35 34 32 29 28 26 25 23 23 23 24 24 24 24 24 24 22 21 23 21 19 23 23 20 21 21 21 22 23 23 27 26 27 26
34 35 34 36 36 32 30 31 30 27 24 24 23 23 23 24 24 24 23 23 23 21 22 21 11 19 20 19 19 20 21 22 22 23 21 23 25 26
35 36 36 32 32 32 31 29 27 25 24 22 22 23 23 23 24 24 24 23 23 24 21 23 20 21 15 20 20 21 21 21 23 21 20 20 20 21
36 32 31 31 30 28 25 24 23 24 23 23 23 22 23 24 22 23 20 22 19 21 24 24 24 21 13 21 21 20 21 21 22 20 20 21 20 20
31 29 27 24 22 22 23 23 23 23 22 22 22 21 21 23 22 22 22 21 20 18 19 23 23 23 23 21 18 19 20 20 20 21 21 19 19 19
28 26 24 23 22 23 22 22 23 23 23 23 22 21 20 21 21 21 21 21 19 20 21 21 22 20 19 18 21 18 18 19 21 21 20 19 18 19
26 25 23 23 23 23 23 22 22 23 23 21 21 22 22 21 21 20 20 19 18 18 20 16 18 21 17 14 18 20 20 21 20 19 19 19 19 19
26 25 24 23 23 23 23 22 22 21 22 23 22 21 21 21 20 19 19 19 19 18 18 16 10 20 20 19 19 20 23 20 20 19 19 20 21 24
25 24 24 24 24 24 23 22 21 20 23 22 21 21 20 20 19 19 18 18 19 18 17 18 19 24 21 16 14 17 18 21 20 20 19 20 19 19
24 24 24 24 24 23 23 22 20 20 18 20 20 21 21 20 19 18 19 18 18 19 20 21 18 15 7 10 17 16 16 18 19 20 21 21 21 18
24 24 24 24 24 23 22 20 20 20 22 22 21 21 20 19 20 20 19 20 20 20 20 18 10 10 9 9 18 15 14 15 15 15 16 21 21 22
Lifted_Index
4 4 4 3 3 3 3 4 4 5 5 5 6 7 8 9 11 12 13 13 14 14 15 16 17 18 20 20 19 19 19 19 18 18 17 16 16 16
4 4 4 3 3 3 3 3 4 4 4 5 6 6 7 8 10 11 12 13 14 14 15 16 17 19 20 20 20 19 19 19 18 18 17 16 16 16
4 4 4 3 3 3 3 3 4 4 4 5 6 6 7 8 9 10 12 13 14 14 16 17 18 19 20 20 20 20 20 19 19 18 17 16 16 16
4 4 4 3 3 3 3 3 3 4 4 4 5 6 7 8 9 10 11 12 13 15 17 18 19 20 20 20 20 20 19 19 18 18 17 17 17 17
4 4 3 3 3 3 3 3 3 4 4 4 5 6 7 8 9 10 11 12 14 16 18 19 19 20 20 20 19 19 19 19 18 18 18 18 18 18
4 4 3 3 3 3 3 3 4 4 4 4 5 6 7 8 9 10 10 12 14 17 18 18 19 19 19 19 19 19 19 19 19 19 19 19 19 19
4 3 3 3 3 3 3 4 4 4 4 5 5 6 6 8 9 10 11 12 14 16 18 18 18 18 18 19 19 19 19 19 19 19 19 19 19 19
3 3 3 3 3 3 4 4 5 5 5 5 5 6 7 9 11 12 13 13 14 16 17 18 18 18 18 18 19 19 19 19 19 19 19 19 19 19
3 3 3 3 3 3 4 4 5 6 7 7 8 8 9 11 13 13 14 15 15 17 17 17 17 17 18 19 19 20 20 20 20 20 20 20 20 20
3 3 3 3 3 4 4 5 6 8 9 10 11 12 12 14 15 15 16 16 16 17 17 17 17 17 18 19 19 20 20 20 21 20 20 20 19 19
4 4 4 4 5 5 5 6 7 9 11 12 13 14 15 16 17 17 16 16 16 16 17 17 17 17 18 18 19 20 21 21 21 20 20 19 18 17
5 6 6 7 7 8 8 8 8 10 12 13 15 16 16 17 17 17 17 16 16 16 17 18 18 18 17 18 18 19 20 21 20 20 19 17 16 16
7 7 8 9 9 10 10 10 11 12 13 15 16 16 17 17 17 18 18 17 17 18 19 19 19 18 18 17 18 19 20 20 19 18 16 15 15 15
8 9 10 10 11 12 12 13 14 15 15 16 16 16 16 17 17 18 18 19 19 19 20 20 20 19 19 18 18 18 19 19 18 16 15 14 14 14
9 10 11 12 13 14 14 15 16 16 16 16 16 16 16 17 17 18 18 19 19 20 20 21 20 20 19 19 18 18 19 19 18 16 14 14 13 13
11 11 12 13 14 15 15 16 16 16 16 16 16 16 16 17 17 18 18 19 19 19 20 21 21 20 19 19 19 19 19 18 17 15 14 13 13 13
12 12 13 14 14 15 16 16 16 16 16 16 16 16 16 17 17 18 18 18 18 19 19 20 20 19 19 19 19 19 18 17 15 14 13 13 13 13
13 13 14 14 15 15 16 16 16 16 16 16 16 16 16 16 17 18 18 19 18 19 19 19 18 18 17 17 19 19 17 15 14 13 13 13 12 12
14 14 15 15 15 16 16 16 16 16 16 16 16 16 16 17 18 18 18 19 19 19 19 18 18 17 16 16 18 18 17 15 13 13 13 13 13 13
15 15 15 15 16 16 16 16 16 16 16 16 16 16 17 17 18 18 18 18 18 18 18 18 18 18 17 16 16 16 16 15 14 13 12 12 13 13
15 15 15 15 15 15 16 16 16 16 16 16 16 17 17 18 18 18 18 18 18 18 18 18 18 19 18 17 16 15 15 15 15 14 13 12 12 13
15 15 15 15 15 15 16 16 16 15 16 16 16 17 18 18 18 18 19 18 18 18 17 18 18 18 18 17 16 14 13 14 14 14 14 13 13 13
15 15 15 15 15 16 16 16 15 15 16 16 17 17 18 18 18 19 19 18 18 18 17 17 17 17 17 17 15 14 13 13 13 13 13 13 14 14